Location: Unspecified
(0.0000°N, 0.0000°E)
Time: 19:33:44
(UTC+00:00)

Envisat - Pass Details

Date: 05 December 2018
Orbit: 764 x 766 km, 98.2° (Epoch: 09 December)

Event Time Altitude Azimuth Distance (km) Brightness Sun altitude
Rises 19:34:41 0° 177° (S) 3,231 6.5 -23.9°
Reaches altitude 10° 19:37:02 10° 181° (S) 2,302 5.8 -24.4°
Maximum altitude 19:41:58 54° 258° (WSW) 926 3.7 -25.5°
Drops below altitude 10° 19:46:54 10° 335° (NNW) 2,292 5.4 -26.7°
Sets 19:49:14 0° 339° (NNW) 3,215 6.2 -27.2°
